Location: Central Falls
(41.8900°N, 71.3929°W)
Time: 16:27:12
(UTC+00:00)

Vanguard 1 Rocket - Pass Details

Date: 08 December 2023
Orbit: 654 x 4218 km, 34.3° (Epoch: 25 February)

Event Time Altitude Azimuth Distance (km) Brightness Sun altitude
Rises 15:34:57 0° 278° (W) 5,745 11.3 23.8°
Reaches altitude 10° 15:41:16 10° 259° (W) 3,938 10.7 24.1°
Maximum altitude 15:46:06 15° 228° (SW) 2,942 10.5 24.3°
Drops below altitude 10° 15:49:50 10° 195° (SSW) 2,859 11.2 24.4°
Sets 15:53:15 0° 171° (S) 3,433 11.8 24.6°
